Location: Newark
(42.8481°N, 0.4872°E)
Time: 08:27:53
(UTC+00:00)

Vanguard 1 - Pass Details

Date: 27 October 2020
Orbit: 650 x 3833 km, 34.2° (Epoch: 26 November)

Event Time Altitude Azimuth Distance (km) Brightness Sun altitude
Rises 08:58:14 0° 174° (S) 6,838 15.2 22.8°
Reaches altitude 10° 09:06:14 10° 153° (SSE) 6,386 15.9 23.8°
Maximum altitude 09:15:48 15° 126° (SE) 6,380 16.1 24.9°
Drops below altitude 10° 09:25:58 10° 100° (E) 6,936 15.2 26.1°
Sets 09:35:12 0° 81° (E) 7,798 15.0 27.1°
